Showing default

EXCITE, 43819

Orbit data source: Space-Track

EXCITE, 43819 is a payload satellite owned by DARPA (US) in SSO that was launched on Mon, 03 Dec 2018 UTC via an FALCON 9 launch vehicle from the Air Force Western Test Range (AFWTR). Payload-class satellites include a variety of spacecraft equipped with specific instruments for various scientific and technological missions. These include communications satellites like Starlink; space stations such as the ISS; scientific satellites like the Hubble; Earth observation satellites from companies like Planet Labs, Umbra, and HawkEye 360; GPS; miniature CubeSats for education and research; and military/defense satellites.

Loading next visibility...
Identifier
43819, 2018-099BP
Orbit
SSO
Country
Flag of USUS
Related business
Manufacturer
NovaWurks
Mission
Operational Defense Technology
Bus & Motor
HISAT, Unknown motor
Mass
~155 kg wet, ~155 kg dry
Launch date (UTC)
2018-12-03 (8 years ago)
Launch vehicle
FALCON 9
Launch site
Air Force Western Test Range (AFWTR)
Object type
Payload
Rocket body
Debris
Shape & HBR
Box, 0.5 m
Radar Cross Section
1.500 m², Large (>1 m²)

Expand to show TLE details & history
Last TLE update: 3 days ago

TLE from 3 days ago
0 EXCITE
1 43819U 18099BP  26170.66884266  .00001690  00000-0  11804-3 0  9997
2 43819  97.3964 209.3389 0017832 347.7961  12.2832 15.06511693412122
Epoch: 2026-06-19T16:03Z
TLE epoch observation values (Epoch: 2026-06-19T16:03:08.005Z)
Latitude
-0.00008°
Longitude
60.66105°
Altitude
537.874 km
Speed
7.6 km/s
True Right ascension
13h 57m 21s
True Declination
0° 00' 00"
Sunlit
Object was in full shadow at epoch
Visualization orbit readout
Latitude
Unknown
Longitude
Unknown
Altitude
Unknown
Speed
Unknown
Apparent Right ascension
Unknown
Apparent Declination
Unknown
Sunlit
N/A
Visualization observer readout
Local Sidereal Time
21:38:30
Azimuth
Unknown
Elevation
Unknown
Doppler factor
Unknown
Orbital elements
Apogee altitude
556.196 km
Perigee altitude
531.509 km
Semi-major axis
6,921.99 km
Eccentricity
0.00178
Inclination
97.3964°
RAAN
209.3389°
Arg. of periapsis
347.7961°
True anomaly
12.32677°
Mean anomaly
12.2832°
Eccentric anomaly
12.30497°
Mean motion
3.76874 °/min
Orbital period
95.52 mins
BSTAR
0.00011804
Loading maneuver chart data...
Computing Atmospheric mass density...
Loading historical data...
Loading historical data...
Loading historical data...
Loading historical data...
Loading historical data...
Loading historical data...
Loading historical data...

Documentation

Showing up to 5 results
|